Location: Newark
(50.0953°N, 2.1719°E)
Time: 13:20:01
(UTC+00:00)

N. Korean satellite - Pass Details

Date: 28 January 2020
Orbit: 456 x 505 km, 97.2° (Epoch: 24 February)

Event Time Altitude Azimuth Distance (km) Brightness Sun altitude
Rises 05:58:15 0° 11° (N) 2,545 10.2 -14.9°
Reaches altitude 10° 06:00:18 10° 9° (N) 1,670 9.3 -14.6°
Maximum altitude 06:03:53 72° 285° (WNW) 518 6.4 -14.0°
Drops below altitude 10° 06:07:29 10° 201° (SSW) 1,683 9.2 -13.4°
Sets 06:09:34 0° 200° (SSW) 2,568 10.2 -13.1°
